Find Starlink 6231

NORAD ID: 56779 Int'l Des: 2023-078 Owner: SPXS Country: US Constellation: starlink operational
LEOCIRCULAR

現在のビュー

3D地球を読み込み中...

About Starlink 6231

Starlink 6231 (NORAD 56779) is a starlink constellation satellite (v1.5) launched May 31, 2023 by SPXS of US. It operates in LEO, CIRCULAR orbit with a mass of 305.00 kg.

Starlink 6231について

説明を読み込み中...

次回通過

Passes for default location (London). Set your location on the main map for personalized predictions.

高度履歴

Loading altitude history...

軌道要素

1 56779U 23078N 26170.09975449 -.00000395 00000-0 -25325-4 0 9997
2 56779 70.0002 68.7723 0002763 267.4502 92.6340 14.98331180168357
Epoch: Jun 19, 2026 • Age: 9 hours

現在のステータス

高度 585.0 km
速度 7.57 km/s
衛星直下点 -38.69°S, 34.13°W
打ち上げ日 May 31, 2023
運用期間 3 years
タイプ internet

技術仕様

分類 Payload
質量 305.00 kg
乾燥質量 290.00 kg
総質量 305.00 kg
長さ 0.20 m
直径 2.80 m
スパン 9.00 m
形状 Box + pan
製造者 SPXS
バスタイプ Starlink
フェーズステータス In Orbit
所有者/国 SPXS/US

Most Searched